Starlink 31468

operational
NORAD ID: 58998 Int'l Des: 2024-036 Owner: SPXS Country: US Constellation: starlink
LEOCIRCULAR

关于 Starlink 31468

正在加载描述...

实时位置

正在加载3D地球...

即将过境

高度历史

Altitude vs Time

uPlot chart will show altitude changes over time

两行轨道根数

1 58998U 24036A 26035.81264204 .00000458 00000-0 27596-4 0 9997
2 58998 53.1603 230.5633 0001228 90.2327 269.8815 15.30192538110308
Epoch: Feb 4, 2026 • Age: 21 hours

当前状态

高度 479.5 km
速度 7.63 km/s
星下点 46.48°N, 26.74°W
发射日期 Feb 23, 2024
运行时间 1.9 years
类型 internet

技术详情

分类 Payload
质量 730.00 kg
干质量 700.00 kg
总质量 730.00 kg
长度 0.30 m
直径 4.10 m
跨度 29.00 m
形状 Box + pan
制造商 SPXS
平台类型 Starlink V2M
阶段状态 In Orbit
所有者/国家 SPXS/US

大型星座

Loading constellations...